EW1109 Weather Reports


Display with metric or nautical units.
time (UTC)temp
F
wind
direction
speed
MPH
gust
MPH
rain 1hr
in
rain 24hr
in
rain mn
in
humidity
%
barometer
mb
20260904123105 65 86 0.0 3.0 0.00 0.17 0.17 100 1014.2
20260904121546 65 77 0.0 0.0 0.00 0.17 0.17 100 1014.6
20260904120032 64 107 0.0 0.0 0.00 0.17 0.17 100 1014.3
20260904114538 64 106 0.0 2.0 0.00 0.17 0.17 100 1014.2
20260904113023 64 38 0.0 0.0 0.00 0.17 0.17 100 1013.7
20260904111518 65 38 0.0 2.0 0.02 0.17 0.17 100 1013.8
20260904110022 65 9 0.0 0.0 0.03 0.17 0.17 100 1013.6
20260904104510 65 13 0.0 0.0 0.13 0.17 0.17 100 1014.2
20260904103005 65 30 0.0 0.0 0.17 0.17 0.17 100 1014.5
20260904101500 66 68 0.0 0.0 0.15 0.15 0.15 100 1015.6
20260904100057 66 36 0.0 0.0 0.14 0.14 0.14 100 1015.7
20260904094540 67 348 0.0 8.0 0.04 0.04 0.04 100 1016.1
20260904093036 69 5 6.0 12.0 0.00 0.00 0.00 100 1016.0
20260904091534 68 19 0.0 2.0 0.00 0.00 0.00 100 1014.1
20260904090027 68 19 0.0 0.0 0.00 0.00 0.00 100 1014.1
20260904084522 68 12 0.0 0.0 0.00 0.00 0.00 100 1013.5
20260904083020 68 36 0.0 0.0 0.00 0.00 0.00 100 1013.5
20260904081515 68 29 0.0 0.0 0.00 0.00 0.00 100 1013.9
20260904080009 68 355 0.0 0.0 0.00 0.00 0.00 100 1013.4
20260904074557 68 32 0.0 0.0 0.00 0.00 0.00 100 1013.9
20260904073046 68 51 0.0 3.0 0.00 0.00 0.00 100 1013.2
20260904071532 68 53 0.0 1.0 0.00 0.00 0.00 100 1013.9
20260904070023 68 20 0.0 0.0 0.00 0.00 0.00 100 1014.1
20260904064518 68 5 0.0 1.0 0.00 0.00 0.00 100 1014.2
20260904063017 67 5 0.0 3.0 0.00 0.00 0.00 100 1013.9
20260904061509 67 46 0.0 0.0 0.00 0.00 0.00 100 1014.1
20260904060006 67 82 0.0 0.0 0.00 0.00 0.00 100 1014.4
20260904054501 66 347 0.0 0.0 0.00 0.00 0.00 100 1014.7
20260904053057 66 347 0.0 0.0 0.00 0.00 0.00 100 1014.9
20260904051542 66 333 0.0 0.0 0.00 0.00 0.00 100 1015.0
20260904050036 65 340 0.0 0.0 0.00 0.00 0.00 100 1015.0
20260904044542 65 57 0.0 0.0 0.00 0.00 0.00 100 1015.1
20260904043028 65 57 0.0 0.0 0.00 0.00 0.00 100 1014.9
20260904041523 65 57 0.0 0.0 0.00 0.00 0.00 100 1015.0
20260904040019 65 57 0.0 0.0 0.00 0.00 0.00 100 1015.0
20260904034516 65 57 0.0 0.0 0.00 0.00 0.00 100 1015.3
20260904033011 65 57 0.0 0.0 0.00 0.00 0.00 100 1015.1
20260904031554 65 57 0.0 0.0 0.00 0.00 0.00 100 1014.9
20260904030049 65 57 0.0 0.0 0.00 0.00 0.00 100 1014.9
20260904024545 65 57 0.0 0.0 0.00 0.00 0.00 100 1014.9
20260904023040 65 57 0.0 0.0 0.00 0.00 0.00 100 1014.6
20260904021542 65 9 0.0 0.0 0.00 0.00 0.00 100 1014.6
20260904020034 65 9 0.0 0.0 0.00 0.00 0.00 100 1014.4
20260904014527 65 9 0.0 0.0 0.00 0.00 0.00 100 1014.5
20260904013031 65 9 0.0 0.0 0.00 0.00 0.00 100 1014.5
20260904011523 66 9 0.0 0.0 0.00 0.00 0.00 100 1014.4
20260904010005 66 9 0.0 0.0 0.00 0.00 0.00 100 1014.1
20260904004601 67 9 0.0 0.0 0.00 0.00 0.00 100 1013.9
20260904003054 68 9 0.0 0.0 0.00 0.00 0.00 100 1013.9
20260904001549 70 9 0.0 0.0 0.00 0.00 0.00 11 1013.9
20260904000106 71 9 0.0 0.0 0.00 0.00 0.00 16 1013.9
20260903234546 73 9 0.0 0.0 0.00 0.00 0.00 19 1013.5
20260903233044 75 9 0.0 0.0 0.00 0.00 0.00 27 1013.5
20260903231533 76 9 0.0 0.0 0.00 0.00 0.00 30 1013.5
20260903230033 77 9 0.0 0.0 0.00 0.00 0.00 33 1013.3
20260903224533 76 9 0.0 0.0 0.00 0.00 0.00 33 1013.1
20260903223037 77 9 0.0 3.0 0.00 0.00 0.00 33 1012.8
20260903221530 78 5 2.0 8.0 0.00 0.00 0.00 32 1012.8
20260903220039 78 11 1.0 5.0 0.00 0.00 0.00 32 1012.7
20260903214528 79 27 2.0 7.0 0.00 0.00 0.00 30 1012.6
20260903213036 79 18 2.0 5.0 0.00 0.00 0.00 30 1012.7
20260903211538 79 72 0.0 3.0 0.00 0.00 0.00 29 1012.7
20260903210014 79 57 1.0 6.0 0.00 0.00 0.00 29 1012.8
20260903204511 79 150 0.0 4.0 0.00 0.00 0.00 26 1013.0
20260903203007 78 355 1.0 4.0 0.00 0.00 0.00 23 1013.1
20260903201503 76 17 2.0 5.0 0.00 0.00 0.00 22 1013.4
20260903200100 75 90 0.0 2.0 0.00 0.00 0.00 20 1013.8
20260903194556 75 13 0.0 2.0 0.00 0.00 0.00 18 1014.3
20260903193053 74 10 0.0 1.0 0.00 0.00 0.00 18 1014.5
20260903191534 73 10 0.0 4.0 0.00 0.00 0.00 17 1014.6
20260903190031 73 9 1.0 4.0 0.00 0.00 0.00 15 1014.9
20260903184511 73 27 0.0 1.0 0.00 0.00 0.00 12 1015.0
20260903183008 72 27 0.0 0.0 0.00 0.00 0.00 11 1015.4
20260903180012 72 27 0.0 0.0 0.00 0.00 0.00 11 1015.4
20260903174519 71 27 0.0 3.0 0.00 0.00 0.00 11 1015.3
20260903173055 71 27 0.0 0.0 0.00 0.00 0.00 10 1015.2
20260903171547 71 27 0.0 0.0 0.00 0.00 0.00 12 1015.0
20260903170104 72 27 0.0 0.0 0.00 0.00 0.00 11 1014.5
20260903164547 72 15 0.0 2.0 0.00 0.00 0.00 11 1014.2
20260903163033 72 15 0.0 3.0 0.00 0.00 0.00 10 1014.0
20260903161529 72 42 2.0 6.0 0.00 0.00 0.00 8 1014.2
20260903160024 72 355 0.0 7.0 0.00 0.00 0.00 5 1014.4
20260903154520 72 33 0.0 7.0 0.00 0.00 0.00 1 1014.3
20260903153017 72 24 0.0 4.0 0.00 0.00 0.00 100 1014.4
20260903151557 72 360 0.0 4.0 0.00 0.01 0.00 100 1014.4
20260903150059 72 16 0.0 4.0 0.00 0.01 0.00 100 1014.6
20260903144532 71 17 0.0 3.0 0.00 0.01 0.00 100 1014.5
20260903141518 70 15 0.0 5.0 0.00 0.01 0.00 100 1014.1
20260903140010 69 13 0.0 2.0 0.00 0.01 0.00 100 1014.1
20260903134552 68 16 1.0 5.0 0.00 0.04 0.01 100 1014.3
20260903133051 67 329 0.0 0.0 0.00 0.04 0.01 100 1014.5
20260903131524 66 196 0.0 1.0 0.00 0.04 0.01 100 1014.5
20260903130020 65 189 0.0 0.0 0.00 0.04 0.01 100 1014.4
20260903124502 65 189 0.0 0.0 0.00 0.06 0.01 100 1014.5